, AK

(GMT )
Northway

Weather History for PAOR - January, 2014

Change the Weather History Date:

Wednesday, January 1, 2014

  Actual Average Record
Temperature  
Mean Temperature -5 °F -  
Max Temperature 1 °F -9 °F 19 °F (2017)
Min Temperature -15 °F -26 °F -62 °F (1965)
Degree Days  
Heating Degree Days 70    
Moisture  
Dew Point -8 °F    
Average Humidity 81    
Maximum Humidity 85    
Minimum Humidity 78    
Precipitation  
Precipitation 0.00 in - - ()
Snow  
Snow 0.00 in - - ()
Snow Depth 11.00 in    
Sea Level Pressure  
Sea Level Pressure 29.66 in    
Wind  
Wind Speed 1 mph (ESE)    
Max Wind Speed 8 mph    
Max Gust Speed -    
Visibility 10 miles    
Events      
Averages and records for this station are not official NWS values.
T = Trace of Precipitation, MM = Missing Value Source: NWS Daily Summary

Daily Weather History Graph

Daily Weather History Graph

Search for Another Location

Airport or City:

Trip Planner

Search our weather history database for the weather conditions in past years. The results will help you decide how hot, cold, wet, or windy it might be!

Date:

Astronomy

Jan. 01, 2014 Rise Set
Actual Time 10:02 AM AKST 3:01 PM AKST
Civil Twilight 8:53 AM AKST 4:09 PM AKST
Nautical Twilight 7:49 AM AKST 5:13 PM AKST
Astronomical Twilight 6:52 AM AKST 6:10 PM AKST
Moon 9:26 AM AKST (1/1) 4:34 PM AKST (1/1)
Length of Visible Light 7h 16m
Length of Day
4h 59m
New Moon, 0% of the Moon is Illuminated
Jan 1
New Moon
Jan 7
First Quarter
Jan 15
Full
Jan 23
Last Quarter
Jan 30
New

Hourly Weather History & Observations

Time (AKST) Temp. Windchill Dew Point Humidity Pressure Visibility Wind Dir Wind Speed Gust Speed Precip Events Conditions
12:53 AM -6.0 °F - -9.9 °F 83% 29.92 in 10.0 mi Calm Calm - N/A   Overcast
1:53 AM -5.1 °F - -9.0 °F 83% 29.90 in 10.0 mi Calm Calm - N/A   Overcast
2:53 AM -4.0 °F - -9.0 °F 79% 29.87 in 10.0 mi Calm Calm - N/A   Overcast
3:53 AM -4.0 °F - -8.0 °F 83% 29.84 in 10.0 mi Calm Calm - N/A   Overcast
4:53 AM -2.9 °F - -8.0 °F 79% 29.80 in 10.0 mi Calm Calm - N/A   Overcast
5:53 AM -2.9 °F - -7.1 °F 82% 29.77 in 10.0 mi Calm Calm - N/A   Overcast
6:53 AM -2.0 °F - -7.1 °F 79% 29.73 in 10.0 mi Calm Calm - N/A   Overcast
7:53 AM -2.0 °F - -6.0 °F 83% 29.69 in 10.0 mi Calm Calm - N/A   Overcast
8:53 AM -0.9 °F - -6.0 °F 79% 29.66 in 10.0 mi Calm Calm - N/A   Mostly Cloudy
9:53 AM -0.9 °F - -6.0 °F 79% 29.63 in 10.0 mi Calm Calm - N/A   Mostly Cloudy
10:53 AM -0.0 °F - -5.1 °F 79% 29.61 in 10.0 mi Calm Calm - N/A   Mostly Cloudy
11:53 AM 1.0 °F - -4.0 °F 79% 29.59 in 10.0 mi Calm Calm - N/A   Overcast
12:42 PM 1.4 °F -6.2 °F -4.0 °F 78% 29.39 in 10.0 mi East 3.5 mph - N/A   Overcast
12:53 PM 1.0 °F -8.7 °F -4.0 °F 79% 29.58 in 10.0 mi East 4.6 mph - N/A   Overcast
1:53 PM 1.9 °F -5.6 °F -2.9 °F 80% 29.57 in 10.0 mi SSE 3.5 mph - N/A   Mostly Cloudy
2:53 PM 1.9 °F -7.6 °F -2.0 °F 83% 29.56 in 10.0 mi East 4.6 mph - N/A   Mostly Cloudy
3:38 PM 1.4 °F -8.3 °F -2.2 °F 85% 29.37 in 10.0 mi East 4.6 mph - N/A   Mostly Cloudy
3:53 PM -0.0 °F -9.9 °F -4.0 °F 83% 29.57 in 10.0 mi East 4.6 mph - N/A   Mostly Cloudy
4:53 PM 1.0 °F -12.9 °F -4.0 °F 79% 29.57 in 10.0 mi East 8.1 mph - N/A   Mostly Cloudy
5:53 PM -2.9 °F - -7.1 °F 82% 29.60 in 10.0 mi Calm Calm - N/A   Mostly Cloudy
6:53 PM -5.1 °F - -9.0 °F 83% 29.62 in 10.0 mi Calm Calm - N/A   Mostly Cloudy
7:53 PM -9.9 °F - -14.1 °F 82% 29.64 in 10.0 mi Calm Calm - N/A   Mostly Cloudy
8:53 PM -11.0 °F - -16.1 °F 78% 29.65 in 10.0 mi Calm Calm - N/A   Mostly Cloudy
9:53 PM -9.0 °F -18.2 °F -13.0 °F 83% 29.67 in 10.0 mi East 3.5 mph - N/A   Mostly Cloudy
10:53 PM -11.0 °F -20.4 °F -16.1 °F 78% 29.69 in 10.0 mi WSW 3.5 mph - N/A   Scattered Clouds
11:53 PM -15.0 °F - -20.0 °F 78% 29.71 in 10.0 mi Calm Calm - N/A   Scattered Clouds